Location: Newark
(12.4436°N, 0.6167°W)
Time: 19:12:33
(UTC+00:00)

Transit 2A - Pass Details

Date: 16 December 2019
Orbit: 601 x 958 km, 66.7° (Epoch: 28 January)

Event Time Altitude Azimuth Distance (km) Brightness Sun altitude
Rises 15:40:13 0° 337° (NNW) 2,998 9.0 25.0°
Reaches altitude 10° 15:42:26 10° 336° (NNW) 2,130 8.3 24.5°
Maximum altitude 15:47:16 78° 250° (WSW) 755 6.6 23.5°
Drops below altitude 10° 15:52:39 10° 164° (SSE) 2,363 8.8 22.4°
Sets 15:55:12 0° 163° (SSE) 3,353 9.5 21.9°
